Showing default

QIANFAN-28, 61561

Orbit data source: Space-Track

QIANFAN-28, 61561 is a Chinese payload satellite in LEO that was launched on Tue, 15 Oct 2024 UTC via a CHANG ZHENG 6A launch vehicle from the Taiyaun Space Center, China (TSC). Payload-class satellites include a variety of spacecraft equipped with specific instruments for various scientific and technological missions. These include communications satellites like Starlink; space stations such as the ISS; scientific satellites like the Hubble; Earth observation satellites from companies like Planet Labs, Umbra, and HawkEye 360; GPS; miniature CubeSats for education and research; and military/defense satellites.

Loading next visibility...
Identifier
61561, 2024-185K
Orbit
LEO
Country
Flag of CNCN / PRC
Related business
Manufacturer
GESIH/SECM
Mission
Partially operational Commercial Communications
Bus & Motor
QIANFAN, Unknown motor
Mass
267 kg wet, ~267 kg dry
Launch date (UTC)
2024-10-15 (1 year ago)
Launch vehicle
CHANG ZHENG 6A
Launch site
Taiyaun Space Center, China (TSC)
Object type
Payload
Rocket body
Debris
Shape & HBR
Box + 1 Pan, 5.0 m
Radar Cross Section
13.200 m², Large (>1 m²)

Expand to show TLE details & history
Last TLE update: 4 hours ago

TLE from 4 hours ago
0 QIANFAN-28
1 61561U 24185K   25292.35227397  .00001683  00000-0  67461-3 0  9992
2 61561  88.9776  83.3134 0009185 104.6859 255.5355 14.27861474 62411
Epoch: 2025-10-19T08:27Z
TLE epoch observation values (Epoch: 2025-10-19T08:27:16.471Z)
Latitude
0.00009°
Longitude
-71.5754°
Altitude
803.605 km
Speed
7.451 km/s
True Right ascension
05h 33m 15s
True Declination
0° 00' 00"
Sunlit
Object was in full shadow at epoch
Visualization orbit readout
Latitude
Unknown
Longitude
Unknown
Altitude
Unknown
Speed
Unknown
Apparent Right ascension
Unknown
Apparent Declination
Unknown
Sunlit
N/A
Visualization observer readout
Local Sidereal Time
06:53:57
Azimuth
Unknown
Elevation
Unknown
Doppler factor
Unknown
Orbital elements
Apogee altitude
802.417 km
Perigee altitude
789.239 km
Semi-major axis
7,173.965 km
Eccentricity
0.00092
Inclination
88.9776°
RAAN
83.3134°
Arg. of periapsis
104.6859°
True anomaly
255.43361°
Mean anomaly
255.5355°
Eccentric anomaly
255.48455°
Mean motion
3.57194 °/min
Orbital period
100.79 mins
BSTAR
0.00067461
Loading maneuver chart data...
Computing Atmospheric mass density...
Loading historical data...
Loading historical data...
Loading historical data...
Loading historical data...
Loading historical data...
Loading historical data...
Loading historical data...

Documentation

Showing up to 5 results
|